Regional Weather Roundup
Issued by NWS

Home | Current Version | Previous Version | Graphics & Text | Print | Product List | Glossary On
Versions: 1 2 3 4 5 6 7 8 9 10 11 12 13 14 15 16 17 18 19 20 21 22 23 24 25 26 27 28 29 30 31 32 33 34 35 36 37 38 39 40 41 42 43 44 45 46 47 48 49 50
676
ASUS45 KTFX 302210
RWRMT
MONTANA REGIONAL WEATHER ROUNDUP
NATIONAL WEATHER SERVICE GREAT FALLS MT
400 PM MDT SAT JUL 30 2016

NOTE: "FAIR" INDICATES FEW OR NO CLOUDS BELOW 12000 FEET WITH NO
SIGNIFICANT WEATHER AND/OR OBSTRUCTIONS TO VISIBILITY.

MTZ001>007-043-302300-
WEST OF THE DIVIDE

CITY           SKY/WX    TMP DP  RH WIND       PRES   REMARKS
KALISPELL      SUNNY     92  38  15 W17G25    29.69F
MISSOULA       SUNNY     95  42  16 W9        29.75F HX  91
BUTTE          MOSUNNY   87  32  14 SW8G22    29.90F
MULLAN PASS    SUNNY     73  45  36 VRB6      29.99F
DEER LODGE       N/A     90  36  14 CALM      29.85F
EUREKA           N/A     91  41  17 SW14G23   29.68S
HAMILTON         N/A     91  46  21 W6        29.76F
LIBBY            N/A     91  45  19 S9        29.72S
PLAINS           N/A     92  49  22 W13       29.74
RONAN            N/A     92  47  21 SW12      29.82S
$$

MTZ008-052>055-302300-
SOUTHWEST MONTANA

CITY           SKY/WX    TMP DP  RH WIND       PRES   REMARKS
BOZEMAN        SUNNY     93  41  16 CALM      29.82F
DILLON         SUNNY     81  50  33 W13       29.86F
W YELLOWSTONE  CLOUDY    81  34  18 SW9G16    30.06F
ENNIS          MOSUNNY   91  34  13 NW14G21   29.93F
$$

MTZ009-010-012-014-046-048-049-054-302300-
EAST SLOPES AND CENTRAL MONTANA

CITY           SKY/WX    TMP DP  RH WIND       PRES   REMARKS
CUT BANK         N/A     91  41  17 SW12G25   29.74F
GREAT FALLS    SUNNY     93  31  11 SW15G23   29.73F
MALMSTROM AFB  MOSUNNY   92  36  13 SW10      29.72F
HELENA         SUNNY     97  35  11 W17G25    29.75F HX  92
CHOTEAU          N/A     91  34  13 VRB5G16   29.77F
CONRAD           N/A     89  52  28 E2        29.80F
$$

MTZ011-013-016-021-045-047-050-051-302300-
NORTH CENTRAL MONTANA

CITY           SKY/WX    TMP DP  RH WIND       PRES   REMARKS
HAVRE          MOSUNNY   93  49  22 W12       29.67F HX  90
N BAR RANCH      N/A     91  37  15 SW12G25   29.82F
CHINOOK          N/A     93  54  26 S6        29.67F HX  91
$$

MTZ017>020-022>027-061-062-302300-
NORTHEAST MONTANA

CITY           SKY/WX    TMP DP  RH WIND       PRES   REMARKS
GLASGOW        SUNNY     89  51  27 SE12G20   29.72F
JORDAN           N/A     93  50  23 SE8G18    29.73F HX  90
SIDNEY         SUNNY     91  48  22 E7        29.77F
WOLF POINT     SUNNY     92  52  25 VRB6      29.75F
PLENTYWOOD       N/A     88  48  25 S9        29.80F
POPLAR           N/A     90  48  24 SE9       29.76F
$$

MTZ028>42-056>058-302300-
SOUTHCENTRAL AND SOUTHEAST MONTANA

CITY           SKY/WX    TMP DP  RH WIND       PRES   REMARKS
BAKER          SUNNY     90  54  29 SE8       29.82F
BILLINGS       MOSUNNY   94  43  17 SW9       29.77F HX  90
LIVINGSTON     SUNNY     96  35  11 W22G29    29.82F HX  91
MILES CITY     SUNNY     96  47  18 VRB6      29.73F HX  92
EKALAKA          N/A     92  50  23 SE6       29.83
FORSYTH          N/A     95  46  18 E7G16     29.71F HX  91
LAUREL           N/A     95  48  20 SE7       29.78F HX  91
ROUNDUP          N/A     93  45  19 CALM      29.70F
$$

REGIONAL REPORTS...DAKOTAS

CITY           SKY/WX    TMP DP  RH WIND       PRES   REMARKS
WILLISTON      SUNNY     89  49  25 SE8       29.79F
MINOT          MOSUNNY   88  60  38 MISG      29.81F
DICKINSON      SUNNY     86  51  29 W8        29.81F
BEACH            N/A     88  50  27 S6        29.84F
CROSBY           N/A     82  54  36 S6        29.83F
WATFORD CITY   PTSUNNY   86  54  32 E9G18     29.80F
BISMARCK       MOSUNNY   86  66  51 SE14      29.82F
GRAND FORKS    CLOUDY    78  61  55 S12       29.90S
FARGO          CLOUDY    80  59  48 S16G23    29.92F
BUFFALO SD       N/A     93  49  22 SE12G17   29.76F HX  90
RAPID CITY     TSTM      83  55  38 SW9       29.85S
$$

REGIONAL REPORTS...WYOMING/IDAHO/WASHINGTON

CITY           SKY/WX    TMP DP  RH WIND       PRES   REMARKS
GILLETTE       MOSUNNY   93  45  19 S10G21    29.83F
SHERIDAN       SUNNY     99  45  15 N12G17    29.78F HX  95
BUFFALO WY     SUNNY     94  39  14 N15G24    29.85F HX  90
CODY           SUNNY     90  43  19 N13       29.87F
YELLOWSTONE LA   N/A     70  40  33 VRB5      30.20R
IDAHO FALLS    SUNNY     93  40  15 S22       29.92F
SALMON         SUNNY     95  41  15 SW18      29.74F HX  91
BOISE          SUNNY     98  41  14 N12       29.79F HX  93
SPOKANE        MOSUNNY   91  41  17 SW21G30   29.75F
$$

REGIONAL REPORTS...ALBERTA

CITY           SKY/WX    TMP DP  RH WIND       PRES   REMARKS
EDMONTON       MOSUNNY   72  57  60 NE6       29.70F
CALGARY        PTSUNNY   73  57  56 SE13      29.71F
LETHBRIDGE     MOSUNNY   82  61  47 NE12G21   29.68F
MEDICINE HAT   MOSUNNY   90  52  27 VRB3      29.68F
WATERTON GATE    N/A     82  45  26 SW17G28     N/A
MILK RIVER       N/A     86  54  32 E6          N/A
$$

REGIONAL REPORTS...SASKATCHEWAN

CITY           SKY/WX    TMP DP  RH WIND       PRES   REMARKS
SWIFT CURRENT  TSTM      68  63  83 SE14G21   29.75F
REGINA         PTSUNNY   84  57  39 S9        29.78F
SASKATOON      TSTM      70  61  73 S21G32    29.75R
CYPRESS HILLS    N/A     82  54  36 S8          N/A
VAL MARIE        N/A     82  54  36 S13G21      N/A
ROCKGLEN         N/A     82  50  32 S12G18      N/A
ASSINIBOIA       N/A     72  61  68 NE8         N/A
$$




USA.gov is the U.S. government's official web portal to all federal, state and local government web resources and services.